Location: Newark
(27.5900°N, 83.4900°E)
Time: 20:09:56
(UTC+00:00)

Hubble Space Telescope - Pass Details

Date: 10 December 2019
Orbit: 536 x 540 km, 28.5° (Epoch: 23 January)

Event Time Altitude Azimuth Distance (km) Brightness Sun altitude
Exits shadow 23:19:27 - 199° (SSW) 2,530 4.2 -23.0°
Reaches altitude 10° 23:23:34 10° 155° (SSE) 1,781 3.9 -22.1°
Maximum altitude 23:23:54 10° 151° (SSE) 1,776 4.0 -22.0°
Drops below altitude 10° 23:24:13 10° 146° (SSE) 1,781 4.1 -21.9°
Sets 23:28:49 0° 100° (E) 2,675 5.9 -21.0°
